| time (UTC) | temp F | wind direction | speed knots | gust knots | rain 1hr in | rain 24hr in | rain mn in | humidity % | barometer mb |
| 20260504224530 | 72 | 108 | 0.0 | 1.7 | 0.00 | 0.00 | 0.00 | 77 | 1015.5 |
| 20260504223027 | 71 | 179 | 0.0 | 0.0 | 0.00 | 0.00 | 0.00 | 64 | 1015.5 |
| 20260504221523 | 67 | 221 | 0.0 | 0.0 | 0.00 | 0.00 | 0.00 | 1 | 1015.5 |
| 20260504220018 | 66 | 242 | 0.0 | 0.0 | 0.00 | 0.00 | 0.00 | 1 | 1015.4 |
| 20260504214513 | 64 | 194 | 0.0 | 0.0 | 0.00 | 0.00 | 0.00 | 1 | 1015.1 |
| 20260504213028 | 63 | 179 | 0.0 | 0.0 | 0.00 | 0.00 | 0.00 | 1 | 1015.1 |
| 20260504211511 | 63 | 188 | 0.0 | 0.0 | 0.00 | 0.00 | 0.00 | 1 | 1014.8 |
| 20260504210101 | 62 | 148 | 0.0 | 0.0 | 0.00 | 0.00 | 0.00 | 1 | 1014.6 |
| 20260504204557 | 61 | 148 | 0.0 | 0.0 | 0.00 | 0.00 | 0.00 | 1 | 1014.6 |
| 20260504203112 | 61 | 147 | 0.0 | 0.0 | 0.00 | 0.00 | 0.00 | 1 | 1014.3 |
| 20260504201547 | 60 | 147 | 0.0 | 0.0 | 0.00 | 0.00 | 0.00 | 1 | 1014.2 |
| 20260504200046 | 61 | 147 | 0.0 | 0.0 | 0.00 | 0.00 | 0.00 | 1 | 1014.1 |
| 20260504194549 | 61 | 147 | 0.0 | 0.0 | 0.00 | 0.00 | 0.00 | 1 | 1013.7 |
| 20260504193040 | 61 | 148 | 0.0 | 0.0 | 0.00 | 0.00 | 0.00 | 1 | 1013.5 |
| 20260504191529 | 62 | 148 | 0.0 | 0.0 | 0.00 | 0.00 | 0.00 | 1 | 1013.3 |
| 20260504190027 | 62 | 148 | 0.0 | 0.0 | 0.00 | 0.00 | 0.00 | 1 | 1013.3 |
| 20260504184521 | 62 | 148 | 0.0 | 0.0 | 0.00 | 0.00 | 0.00 | 1 | 1013.1 |
| 20260504183021 | 62 | 148 | 0.0 | 0.0 | 0.00 | 0.00 | 0.00 | 1 | 1013.1 |
| 20260504181512 | 61 | 148 | 0.0 | 0.0 | 0.00 | 0.00 | 0.00 | 1 | 1013.2 |
| 20260504180008 | 62 | 148 | 0.0 | 0.0 | 0.00 | 0.00 | 0.00 | 1 | 1013.3 |
| 20260504174503 | 62 | 148 | 0.0 | 0.0 | 0.00 | 0.00 | 0.00 | 1 | 1013.4 |
| 20260504173109 | 63 | 148 | 0.0 | 0.0 | 0.00 | 0.00 | 0.00 | 1 | 1013.5 |
| 20260504171555 | 63 | 148 | 0.0 | 0.0 | 0.00 | 0.00 | 0.00 | 1 | 1013.5 |
| 20260504081533 | 76 | 89 | 0.0 | 0.0 | 0.00 | 0.00 | 0.00 | 77 | 1013.4 |
| 20260504050010 | 82 | 175 | 4.3 | 12.2 | 0.00 | 0.00 | 0.00 | 64 | 1012.1 |
| 20260504044517 | 82 | 179 | 4.3 | 9.6 | 0.00 | 0.00 | 0.00 | 63 | 1012.0 |
| 20260504043004 | 83 | 32 | 3.5 | 10.4 | 0.00 | 0.00 | 0.00 | 62 | 1012.1 |
| 20260504041557 | 83 | 64 | 3.5 | 9.6 | 0.00 | 0.00 | 0.00 | 61 | 1012.0 |
| 20260504040053 | 82 | 56 | 4.3 | 10.4 | 0.00 | 0.00 | 0.00 | 60 | 1012.1 |
| 20260504034554 | 83 | 14 | 4.3 | 11.3 | 0.00 | 0.00 | 0.00 | 58 | 1012.3 |
| 20260504033053 | 83 | 87 | 0.9 | 13.0 | 0.00 | 0.00 | 0.00 | 61 | 1012.4 |
| 20260504031541 | 84 | 185 | 0.0 | 9.6 | 0.00 | 0.00 | 0.00 | 61 | 1012.7 |
| 20260504030035 | 83 | 39 | 2.6 | 10.4 | 0.00 | 0.00 | 0.00 | 61 | 1013.0 |
| 20260504024533 | 84 | 64 | 1.7 | 8.7 | 0.00 | 0.00 | 0.00 | 58 | 1013.2 |
| 20260504023027 | 83 | 66 | 2.6 | 11.3 | 0.00 | 0.00 | 0.00 | 62 | 1013.3 |
| 20260504021531 | 83 | 102 | 1.7 | 7.0 | 0.00 | 0.00 | 0.00 | 63 | 1013.6 |
| 20260504020020 | 83 | 170 | 1.7 | 8.7 | 0.00 | 0.00 | 0.00 | 61 | 1013.9 |
| 20260504014515 | 83 | 84 | 1.7 | 7.8 | 0.00 | 0.00 | 0.00 | 63 | 1014.3 |
| 20260504013010 | 82 | 122 | 0.0 | 6.1 | 0.00 | 0.00 | 0.00 | 64 | 1014.5 |
| 20260504011503 | 81 | 53 | 0.9 | 9.6 | 0.00 | 0.00 | 0.00 | 66 | 1014.6 |
| 20260504010109 | 81 | 75 | 3.5 | 10.4 | 0.00 | 0.00 | 0.00 | 66 | 1014.8 |
| 20260504004556 | 81 | 129 | 1.7 | 7.8 | 0.00 | 0.00 | 0.00 | 68 | 1015.0 |
| 20260504003052 | 81 | 70 | 0.9 | 7.0 | 0.00 | 0.00 | 0.00 | 68 | 1015.1 |
| 20260504001606 | 81 | 175 | 0.0 | 8.7 | 0.00 | 0.00 | 0.00 | 69 | 1015.2 |
| 20260504000043 | 80 | 117 | 1.7 | 9.6 | 0.00 | 0.00 | 0.00 | 70 | 1015.3 |
| 20260503234537 | 80 | 146 | 0.9 | 8.7 | 0.00 | 0.00 | 0.00 | 72 | 1015.2 |
| 20260503233034 | 79 | 128 | 0.9 | 9.6 | 0.00 | 0.00 | 0.00 | 72 | 1015.0 |
| 20260503231529 | 79 | 140 | 0.9 | 5.2 | 0.00 | 0.00 | 0.00 | 74 | 1014.8 |
| 20260503230025 | 78 | 62 | 0.0 | 6.1 | 0.00 | 0.00 | 0.00 | 76 | 1014.8 |